Milwaukee Timmerman, WI

8:29 PM CDT on April 26, 2017 (GMT -0500)
Timmerman

Weather History for KMWC - November, 2013

Change the Weather History Date:

Tuesday, November 5, 2013

  Actual Average Record
Temperature  
Mean Temperature 52 °F -  
Max Temperature 55 °F 49 °F 72 °F (1978)
Min Temperature 48 °F 34 °F 3 °F (1951)
Degree Days  
Heating Degree Days 14    
Growing Degree Days 2 (Base 50)    
Moisture  
Dew Point 44 °F    
Average Humidity 78    
Maximum Humidity 88    
Minimum Humidity 67    
Precipitation  
Precipitation 0.00 in - - ()
Sea Level Pressure  
Sea Level Pressure 30.12 in    
Wind  
Wind Speed 6 mph (South)    
Max Wind Speed 17 mph    
Max Gust Speed 23 mph    
Visibility 9 miles    
Events Rain    
Averages and records for this station are not official NWS values.
T = Trace of Precipitation, MM = Missing Value Source: NWS Daily Summary

Daily Weather History Graph

Daily Weather History Graph

Search for Another Location

Airport or City:

Trip Planner

Search our weather history database for the weather conditions in past years. The results will help you decide how hot, cold, wet, or windy it might be!

Date:

Astronomy

Nov. 05, 2013 Rise Set
Actual Time 6:32 AM CST 4:38 PM CST
Civil Twilight 6:02 AM CST 5:08 PM CST
Nautical Twilight 5:28 AM CST 5:42 PM CST
Astronomical Twilight 4:55 AM CST 6:15 PM CST
Moon 8:49 AM CST (11/5) 6:37 PM CST (11/5)
Length of Visible Light 11h 06m
Length of Day
10h 06m
Waxing Crescent, 7% of the Moon is Illuminated
Nov 5
Waxing Crescent
Nov 9
First Quarter
Nov 17
Full
Nov 25
Last Quarter
Dec 2
New

Hourly Weather History & Observations

Time (CST) Temp. Dew Point Humidity Pressure Visibility Wind Dir Wind Speed Gust Speed Precip Events Conditions
12:15 AM 51.8 °F 41.0 °F 67% 30.18 in 10.0 mi SW 5.8 mph - N/A   Overcast
12:35 AM 50.0 °F 41.0 °F 71% 30.18 in 10.0 mi SW 5.8 mph - N/A   Overcast
12:55 AM 50.0 °F 41.0 °F 71% 30.19 in 10.0 mi SW 6.9 mph - N/A   Overcast
1:15 AM 50.0 °F 41.0 °F 71% 30.19 in 10.0 mi SW 5.8 mph - N/A   Overcast
1:35 AM 50.0 °F 41.0 °F 71% 30.20 in 10.0 mi SW 6.9 mph - N/A   Overcast
1:55 AM 50.0 °F 41.0 °F 71% 30.20 in 10.0 mi SW 8.1 mph - N/A   Overcast
2:15 AM 50.0 °F 42.8 °F 76% 30.20 in 10.0 mi SSW 6.9 mph - N/A   Overcast
2:35 AM 50.0 °F 42.8 °F 76% 30.20 in 10.0 mi SSW 5.8 mph - N/A   Overcast
2:55 AM 50.0 °F 42.8 °F 76% 30.21 in 10.0 mi SSW 5.8 mph - N/A   Overcast
3:15 AM 50.0 °F 42.8 °F 76% 30.21 in 10.0 mi SW 4.6 mph - N/A   Overcast
3:35 AM 50.0 °F 42.8 °F 76% 30.21 in 10.0 mi Calm Calm - N/A   Overcast
3:55 AM 50.0 °F 42.8 °F 76% 30.22 in 10.0 mi Calm Calm - N/A   Overcast
4:15 AM 48.2 °F 42.8 °F 82% 30.22 in 10.0 mi SSW 3.5 mph - N/A   Overcast
4:35 AM 50.0 °F 42.8 °F 76% 30.22 in 10.0 mi South 4.6 mph - N/A   Overcast
4:55 AM 48.2 °F 42.8 °F 82% 30.23 in 10.0 mi Calm Calm - N/A   Overcast
5:15 AM 48.2 °F 42.8 °F 82% 30.23 in 10.0 mi SSW 3.5 mph - N/A   Overcast
5:35 AM 48.2 °F 42.8 °F 82% 30.23 in 10.0 mi Calm Calm - N/A   Overcast
5:55 AM 48.2 °F 42.8 °F 82% 30.23 in 10.0 mi South 3.5 mph - N/A   Overcast
6:45 AM 48.2 °F 42.8 °F 82% 30.23 in 10.0 mi Calm Calm - N/A   Overcast
7:45 AM 48.2 °F 44.6 °F 87% 30.25 in 10.0 mi Calm Calm - N/A   Overcast
8:45 AM 51.8 °F 42.8 °F 71% 30.26 in 10.0 mi SSW 3.5 mph - N/A   Overcast
9:45 AM 51.8 °F 44.6 °F 76% 30.25 in 10.0 mi Calm Calm - N/A   Overcast
10:45 AM 53.6 °F 44.6 °F 72% 30.25 in 10.0 mi Calm Calm - N/A   Overcast
11:45 AM 53.6 °F 44.6 °F 72% 30.22 in 10.0 mi Calm Calm - N/A   Overcast
12:45 PM 55.4 °F 44.6 °F 67% 30.19 in 10.0 mi SE 5.8 mph - N/A   Overcast
1:45 PM 51.8 °F 44.6 °F 76% 30.17 in 10.0 mi Calm Calm - N/A   Overcast
2:45 PM 51.8 °F 46.4 °F 82% 30.14 in 7.0 mi SE 8.1 mph - N/A Rain Light Rain
3:45 PM 53.6 °F 44.6 °F 72% 30.11 in 10.0 mi SSE 5.8 mph - N/A   Overcast
4:45 PM 51.8 °F 46.4 °F 82% 30.09 in 7.0 mi SSE 10.4 mph - N/A Rain Light Rain
5:45 PM 51.8 °F 48.2 °F 88% 30.08 in 5.0 mi SSE 10.4 mph - N/A   Drizzle
6:45 PM 51.8 °F 48.2 °F 88% 30.06 in 7.0 mi SSE 9.2 mph - N/A   Drizzle
7:45 PM 51.8 °F 48.2 °F 88% 30.03 in 7.0 mi SSE 12.7 mph - N/A   Mostly Cloudy
8:15 PM 50.0 °F 46.4 °F 87% 30.01 in 7.0 mi SSE 10.4 mph 19.6 mph N/A   Overcast
8:35 PM 51.8 °F 46.4 °F 82% 29.99 in 7.0 mi SSE 16.1 mph 19.6 mph N/A   Overcast
8:45 PM 51.8 °F 46.4 °F 82% 29.98 in 7.0 mi SSE 10.4 mph 17.3 mph N/A   Overcast
8:55 PM 50.0 °F 44.6 °F 82% 29.98 in 10.0 mi SSE 15.0 mph 19.6 mph N/A   Mostly Cloudy
9:15 PM 51.8 °F 44.6 °F 76% 29.98 in 10.0 mi South 13.8 mph 21.9 mph N/A   Overcast
9:35 PM 51.8 °F 44.6 °F 76% 29.97 in 10.0 mi South 12.7 mph 20.7 mph N/A   Overcast
9:55 PM 51.8 °F 44.6 °F 76% 29.96 in 10.0 mi South 12.7 mph 21.9 mph N/A   Overcast
10:15 PM 51.8 °F 44.6 °F 76% 29.95 in 10.0 mi South 15.0 mph 18.4 mph N/A   Overcast
10:35 PM 51.8 °F 44.6 °F 76% 29.95 in 10.0 mi South 13.8 mph 20.7 mph N/A   Overcast
10:55 PM 50.0 °F 44.6 °F 82% 29.94 in 7.0 mi South 17.3 mph 23.0 mph N/A   Light Drizzle
11:15 PM 50.0 °F 46.4 °F 87% 29.93 in 10.0 mi South 15.0 mph 19.6 mph N/A   Overcast
11:35 PM 50.0 °F 46.4 °F 87% 29.92 in 5.0 mi South 11.5 mph 19.6 mph N/A   Overcast
11:55 PM 51.8 °F 46.4 °F 82% 29.90 in 10.0 mi South 16.1 mph - N/A   Overcast